GFSMW_250_rhum_015.txt.gz
RH
53 82 79 44 57 52 49 47 39 39 42 45 56 62 57 52 53 60 66 78 71 57 54 52 50 49 53 57 61 64 62 66 65 65 68 71 64 62 63 61 53 48 52
39 48 52 51 48 38 40 38 29 28 27 34 41 46 47 40 39 33 39 49 55 63 66 61 49 45 47 49 53 54 63 68 73 75 71 60 62 62 61 65 64 63 59
32 30 35 46 45 38 43 44 46 46 48 50 50 55 46 50 52 55 62 66 66 75 74 72 66 62 60 57 52 58 70 82 87 85 82 76 70 58 60 58 66 68 69
28 38 46 42 45 50 71 90 100 100 100 100 100 100 100 100 100 100 100 97 97 95 87 76 65 59 56 54 54 55 65 87 96 90 85 77 60 58 58 68 70 60 51
36 42 45 47 53 68 88 100 100 100 100 99 100 98 100 100 100 100 95 82 81 70 65 65 56 55 54 54 53 53 56 56 54 56 54 56 52 56 57 64 97 54 44
39 38 45 54 68 68 61 65 72 78 76 83 80 69 61 61 65 61 56 62 57 64 61 55 51 47 40 38 41 44 46 48 57 53 56 59 55 61 58 42 44 58 46
30 29 33 44 46 47 49 49 44 41 39 40 48 51 50 45 41 44 55 63 49 49 48 47 45 46 46 46 45 43 43 44 47 47 46 47 46 37 37 34 27 24 26
46 43 44 54 51 49 50 49 50 50 50 48 47 44 51 75 80 69 57 51 54 59 51 50 50 50 53 45 36 32 35 32 26 22 21 19 20 22 20 19 17 16 16
44 53 60 70 69 72 66 57 55 59 60 59 75 89 84 79 73 64 56 56 53 50 45 42 37 34 28 22 21 20 21 17 13 12 13 14 15 15 14 13 12 13 20
84 87 83 69 63 52 48 57 58 58 63 80 81 76 70 62 57 54 49 50 58 50 39 36 33 20 17 15 13 12 12 13 14 14 13 12 11 10 10 11 14 14 16
75 64 64 56 51 56 59 70 77 75 80 80 71 63 57 51 55 58 57 55 44 29 27 25 18 17 16 14 13 13 13 13 11 10 10 11 10 11 12 12 11 10 9
43 48 44 42 52 84 81 100 100 89 88 82 62 55 52 55 57 60 57 38 25 24 21 17 18 17 16 14 13 11 10 10 10 13 11 11 10 11 10 7 7 7 7
53 47 58 83 79 65 71 73 89 95 73 59 53 51 51 55 56 47 30 22 19 17 16 17 17 16 15 13 12 11 12 15 14 12 10 10 9 8 7 6 6 6 7
49 55 64 68 71 81 90 88 83 69 59 50 49 59 56 51 44 28 23 19 17 16 16 16 16 16 15 14 14 15 15 13 11 10 9 8 6 6 6 6 7 7 7
54 58 64 71 82 77 73 66 61 57 57 51 54 53 47 31 25 21 18 17 15 16 16 17 17 17 16 15 14 14 13 12 11 9 6 6 6 6 6 6 6 5 5
62 80 91 78 75 75 73 67 64 64 54 54 47 38 27 20 17 15 14 14 14 14 15 14 15 15 15 14 12 11 12 10 7 6 6 6 7 6 6 5 5 4 4
83 77 72 83 88 82 75 56 63 53 49 41 30 21 18 15 14 13 14 14 14 14 13 13 12 12 10 10 10 10 8 6 6 6 7 7 6 6 5 5 4 4 4
75 73 91 97 74 75 70 73 55 44 38 26 19 15 13 12 12 13 13 13 13 12 12 11 11 10 10 9 8 6 6 6 6 7 6 6 6 5 4 4 3 3 3
74 92 89 80 84 92 82 62 54 43 25 17 14 12 12 11 11 12 12 12 12 11 11 10 10 10 8 7 6 5 6 6 6 6 6 6 5 4 3 3 3 3 3
95 95 88 87 83 81 70 49 39 22 17 14 12 10 10 10 10 11 11 11 11 11 11 10 8 6 6 6 5 6 7 6 6 6 6 5 4 3 4 4 4 4 3
90 99 99 85 79 62 49 39 24 17 14 10 9 9 10 10 10 10 10 10 10 9 8 6 5 5 6 6 6 7 6 6 6 6 5 4 4 5 5 5 4 3 3
100 84 68 68 62 48 33 25 18 13 10 9 9 9 10 10 9 9 9 8 7 6 5 5 5 5 6 7 6 6 6 6 6 5 4 5 5 6 5 4 4 4 3
76 71 60 57 41 29 20 16 11 10 9 9 10 10 10 10 9 8 6 5 5 6 6 5 6 6 7 6 6 6 7 6 6 4 5 6 6 5 4 4 4 4 3
58 61 52 38 26 18 14 10 8 8 9 9 9 9 9 7 5 5 5 5 6 6 6 6 5 5 6 5 6 6 6 6 5 5 6 6 6 4 4 4 4 4 4
51 46 31 22 16 11 9 8 8 9 9 9 9 8 5 5 5 5 5 6 6 6 6 5 5 5 5 5 6 6 5 4 5 6 7 6 5 5 5 5 4 4 4
41 23 18 14 10 8 8 8 8 9 9 9 6 4 4 5 5 6 6 6 6 6 5 5 5 5 5 5 5 5 4 4 6 7 7 6 5 6 6 6 5 5 4

GFSMW_250_rhum_021.txt.gz
RH
25 27 29 29 29 27 24 25 28 29 33 47 72 76 61 57 58 62 64 62 59 57 64 65 67 69 73 74 65 58 56 57 59 55 53 54 55 51 48 52 58 58 56
25 26 28 28 31 32 31 27 30 41 57 69 68 63 64 73 74 78 84 89 84 84 85 86 83 66 61 60 57 55 54 54 52 52 52 51 53 60 59 54 55 52 50
33 26 26 29 32 33 36 42 48 58 66 64 68 73 79 83 78 80 84 80 81 75 75 77 73 75 64 54 56 51 48 48 45 47 45 49 45 43 50 55 58 58 58
33 31 29 33 33 38 78 90 91 88 96 98 96 84 72 69 67 64 62 65 66 63 66 59 54 55 55 53 46 48 58 61 53 58 49 43 50 48 48 45 45 48 51
29 27 28 31 42 72 86 91 84 75 76 77 69 67 67 62 62 65 67 56 58 70 58 54 57 64 65 64 68 65 67 62 58 50 46 45 49 46 43 48 41 44 43
33 40 48 65 74 83 82 77 80 76 75 70 65 58 55 56 60 63 69 77 57 65 65 68 67 73 75 66 64 62 57 51 44 38 38 39 42 46 46 42 40 34 40
53 62 66 66 67 66 66 66 61 55 49 50 56 55 51 55 64 58 44 50 62 69 79 72 68 73 78 69 59 55 45 38 32 27 26 25 25 25 24 24 22 25 29
63 62 63 58 57 61 64 61 50 50 52 53 57 62 65 67 74 77 76 73 69 66 62 64 64 66 61 54 46 40 36 26 22 20 18 16 17 17 16 15 16 17 23
47 49 57 74 73 70 68 56 61 55 49 51 56 64 69 75 73 70 74 79 70 68 65 64 58 50 38 28 22 21 19 17 17 16 16 15 15 15 14 14 15 15 16
65 81 76 78 75 72 76 64 51 47 48 55 66 76 78 70 72 81 91 83 82 68 59 53 37 26 21 17 17 16 15 14 14 14 13 13 13 13 13 14 14 15 15
73 82 93 87 79 70 58 52 72 76 82 79 73 75 86 91 92 96 84 75 64 48 36 28 21 18 14 12 11 10 10 10 10 10 11 11 11 12 12 12 13 13 13
61 67 70 64 62 60 66 76 88 80 86 87 100 100 100 96 84 69 64 51 42 28 20 16 14 12 10 9 8 8 8 8 8 9 9 10 10 11 12 12 12 12 12
57 59 57 61 65 75 81 83 89 94 99 100 100 100 99 92 75 72 45 30 22 16 13 11 9 8 7 7 8 8 8 8 8 8 9 9 10 11 11 12 12 12 12
57 63 78 85 75 78 85 100 100 100 100 100 100 98 89 75 54 28 20 16 15 12 9 8 7 7 7 8 8 8 9 9 9 9 9 9 10 10 10 10 10 10 10
73 79 77 69 74 92 100 100 100 100 100 100 97 89 65 34 20 16 14 12 10 8 6 6 7 8 8 8 9 10 10 9 9 9 9 9 9 9 10 10 9 9 8
82 80 73 88 95 87 100 100 100 100 96 99 89 57 27 15 14 12 10 8 7 7 7 7 8 8 8 8 8 9 9 10 10 10 10 10 9 9 9 9 9 8 7
82 74 85 85 95 100 100 99 87 96 100 81 60 19 14 14 12 8 7 6 7 7 8 8 8 8 8 8 7 7 7 8 8 9 9 9 8 8 8 7 6 5 5
88 73 88 100 100 100 100 78 81 83 68 54 18 14 13 10 8 7 7 7 8 8 8 8 7 6 5 5 5 4 4 4 5 5 5 6 5 5 6 5 5 5 5
71 92 100 100 100 96 74 78 67 60 50 19 13 12 9 8 7 7 8 7 6 5 4 4 4 4 4 4 4 4 4 4 5 5 6 5 5 5 5 5 6 6 6
78 100 100 100 83 77 73 60 50 38 17 13 11 9 8 7 7 8 6 4 4 4 4 4 4 4 4 5 5 5 5 5 5 6 6 6 6 6 6 6 6 5 6
97 100 93 89 90 68 63 46 33 18 13 11 9 8 7 7 7 5 4 4 4 4 4 4 4 5 6 6 6 5 5 6 6 6 7 7 6 6 6 6 6 6 5
100 98 96 80 70 64 40 30 15 12 10 9 8 7 7 6 4 4 4 4 4 4 4 5 5 5 6 6 5 4 5 6 6 6 6 6 6 7 7 7 6 5 4
82 75 82 69 60 42 26 14 12 11 9 7 7 7 6 4 4 4 5 4 4 5 5 5 4 4 4 5 5 5 5 6 6 6 6 6 7 7 7 6 5 4 6
72 68 62 52 40 28 13 11 11 8 7 7 7 6 4 4 5 5 5 5 6 5 4 4 4 4 4 4 4 5 6 6 6 7 7 6 7 7 7 5 5 7 7
66 53 43 31 18 14 12 10 8 7 7 7 6 5 5 5 6 5 5 6 5 5 5 4 4 4 4 4 4 4 5 5 6 6 6 6 7 6 5 5 7 8 7
35 26 23 16 13 12 9 8 7 7 6 6 5 5 5 6 6 5 5 4 4 5 5 4 4 4 4 4 4 4 5 5 6 6 6 6 5 4 5 7 8 8 6

GFSMW_250_rhum_024.txt.gz
RH
25 29 24 26 26 26 28 29 30 33 43 48 56 63 66 75 84 80 70 63 58 59 59 61 84 88 77 68 70 65 64 62 60 58 60 60 69 64 49 49 51 59 54
28 29 31 29 29 29 27 28 34 47 63 76 79 77 76 72 59 52 55 62 67 66 64 68 72 71 64 60 61 68 68 62 62 59 61 62 61 75 69 57 54 51 50
27 27 27 27 27 31 38 49 63 76 80 78 76 72 70 62 61 65 71 69 66 68 69 66 65 69 73 69 69 75 79 66 59 58 62 55 58 65 66 68 72 48 47
25 24 25 28 41 47 60 83 90 81 76 83 77 70 60 54 57 62 63 65 63 60 59 62 65 64 64 69 71 84 93 89 81 76 61 70 70 64 60 55 62 60 46
25 32 35 47 64 81 97 100 100 96 93 81 77 75 71 72 72 62 54 54 58 61 76 70 63 74 78 84 74 75 69 69 73 75 74 62 62 69 58 48 35 39 45
33 46 65 72 80 86 97 100 96 94 86 79 74 71 70 56 59 53 53 53 60 63 79 85 87 87 94 87 84 78 67 63 56 54 50 53 51 49 48 51 54 30 20
56 69 76 73 76 81 83 76 74 74 68 68 70 63 60 57 56 60 58 72 99 100 100 100 100 100 93 82 76 72 56 50 39 33 34 32 31 30 28 24 28 31 24
60 50 50 60 70 68 60 60 72 79 74 62 57 65 63 71 78 80 98 100 100 100 96 99 98 83 68 50 38 30 27 22 21 19 20 20 21 18 17 16 15 16 19
52 64 66 71 74 66 64 71 66 57 56 61 70 76 85 88 96 100 96 100 99 100 97 82 71 52 29 18 17 16 16 16 15 15 15 14 14 14 14 13 12 13 15
56 50 55 65 63 62 60 61 65 62 64 70 78 88 94 94 91 98 100 99 100 98 80 64 39 17 14 14 12 12 11 10 10 9 9 9 9 9 9 10 10 10 11
52 62 62 63 66 61 60 63 62 75 81 87 93 89 92 95 100 100 100 100 92 74 55 38 14 13 12 10 9 8 7 6 6 6 7 7 7 7 7 8 8 8 9
66 63 60 57 59 62 68 72 80 92 92 87 93 98 100 100 95 100 97 88 64 50 31 14 12 10 8 7 6 6 6 6 7 7 7 7 7 7 7 7 8 8 8
51 48 58 64 66 70 80 83 92 93 90 100 100 100 100 96 100 94 72 52 39 26 13 11 8 7 6 6 6 7 7 8 8 8 8 8 8 8 8 8 8 8 8
50 63 67 68 68 77 81 98 99 100 100 100 100 100 97 100 88 69 50 37 21 13 11 8 6 6 6 7 7 8 8 8 8 8 8 8 9 9 9 9 9 9 9
61 67 69 75 76 87 99 100 100 100 99 100 100 100 100 72 56 45 31 16 11 8 6 6 6 7 7 6 6 6 6 7 8 8 8 8 8 8 9 9 9 10 10
74 75 75 84 100 100 100 100 99 98 100 100 93 80 58 43 35 24 13 11 7 6 6 6 6 6 4 4 4 4 4 4 4 4 4 5 6 7 8 9 10 9 9
80 90 100 100 100 97 96 100 100 100 100 83 63 40 33 26 16 13 10 7 6 6 6 5 4 4 4 4 4 4 4 4 4 4 4 4 4 5 6 6 7 7 8
100 99 99 98 86 90 100 100 93 74 52 40 29 25 17 14 12 8 6 6 6 5 4 3 4 4 4 4 4 4 4 4 4 5 5 5 5 5 5 5 5 5 5
95 93 97 89 100 100 96 68 54 34 27 22 18 14 13 11 7 7 6 6 4 4 4 4 4 4 4 4 5 5 5 5 5 6 6 6 5 5 6 5 5 5 5
92 89 99 100 96 78 62 48 27 18 18 14 12 12 9 7 7 6 6 4 4 4 4 5 4 4 6 6 6 5 5 5 6 6 6 6 6 6 6 6 6 6 7
91 100 94 72 61 52 35 18 17 15 14 13 11 8 7 7 6 5 5 4 5 5 5 4 5 6 6 6 5 4 4 5 6 6 6 6 6 6 6 6 6 7 7
98 78 59 52 40 28 18 17 14 14 13 10 7 6 6 6 5 5 5 5 5 6 5 4 4 4 5 5 4 5 5 5 5 5 5 6 6 6 6 6 6 7 7
59 50 46 34 22 16 16 15 14 13 10 7 6 6 5 5 5 5 5 5 6 5 4 4 4 4 4 4 4 4 4 5 5 6 6 6 6 7 7 7 8 8 8
44 36 30 18 17 16 14 14 12 9 7 6 6 5 5 5 5 5 5 6 6 5 4 4 4 4 4 4 4 4 4 4 5 5 6 6 6 7 8 8 8 8 8
34 28 18 17 16 15 14 10 7 6 6 5 5 5 5 5 5 5 6 6 6 5 4 4 4 4 4 4 4 4 4 4 5 5 5 6 6 7 8 8 8 8 6
20 17 16 15 13 11 8 7 6 6 5 4 4 5 5 6 5 6 6 6 5 5 5 5 4 4 4 4 3 2 3 3 4 5 5 6 6 7 8 7 6 6 6

GFSMW_250_rhum_030.txt.gz
RH
16 15 15 16 20 23 22 23 24 29 35 44 42 44 40 36 40 42 45 42 41 45 44 47 49 55 55 53 61 66 69 74 82 85 80 73 69 80 83 93 74 66 77
15 15 17 20 22 22 24 24 28 36 45 46 41 42 39 36 43 52 50 48 48 52 54 52 49 54 65 71 69 64 65 67 65 61 60 64 74 75 82 86 96 88 87
18 19 21 22 21 22 22 27 40 52 52 42 40 42 47 63 68 56 46 48 54 56 56 64 74 79 82 92 92 75 67 67 76 76 72 69 64 70 92 98 92 83 84
21 24 25 24 23 21 24 36 55 52 52 52 50 56 64 61 54 52 58 60 61 67 74 79 78 79 80 75 74 77 74 71 62 66 68 69 62 64 60 72 82 87 75
23 24 23 20 20 26 40 58 53 52 57 65 63 63 69 67 65 65 70 73 76 74 78 87 93 91 71 65 65 64 67 64 67 74 80 92 90 80 57 51 66 70 59
21 19 18 21 32 53 61 65 64 60 57 65 70 71 67 63 66 72 71 70 78 79 78 76 78 77 94 89 79 63 74 83 80 77 67 52 51 37 29 21 21 21 30
18 17 24 54 60 58 59 68 63 62 69 67 59 62 60 58 60 64 69 75 80 86 92 98 94 87 76 77 75 83 94 85 68 52 40 23 21 20 20 15 11 10 11
18 24 55 61 73 63 60 62 63 61 55 54 60 69 64 66 71 70 82 92 91 74 65 65 69 74 77 76 76 73 62 49 38 20 18 17 15 13 11 9 8 8 7
33 52 58 64 60 45 41 42 47 52 61 63 55 60 76 93 100 100 100 97 74 65 68 73 69 70 67 70 71 60 41 21 19 15 13 12 11 9 7 6 6 5 5
63 62 66 49 38 40 45 55 58 46 56 78 90 97 100 98 79 65 59 52 54 59 68 75 67 54 50 45 37 26 19 15 13 12 10 8 6 6 6 6 6 5 5
61 59 48 41 45 49 51 58 70 84 91 95 93 80 72 67 66 57 54 56 55 60 57 37 33 26 18 17 17 16 13 11 9 7 6 6 6 6 6 5 5 5 5
35 41 44 45 48 55 70 77 73 72 80 85 73 69 63 69 62 61 59 59 58 45 27 22 20 17 15 14 14 13 11 9 7 6 5 5 4 3 3 3 3 3 3
50 55 55 50 56 59 58 55 74 84 70 70 71 69 65 63 53 53 53 57 35 24 18 16 15 14 13 11 10 8 6 6 5 4 4 3 3 4 4 3 3 3 3
47 39 40 42 46 54 58 72 79 83 74 66 70 63 56 50 45 50 54 29 20 14 13 13 12 10 8 7 6 5 5 4 4 4 4 4 4 4 4 4 4 4 4
50 46 45 52 61 82 100 95 81 79 88 75 66 60 51 54 50 43 25 17 13 12 12 11 8 7 6 6 5 4 4 4 4 4 4 5 5 4 4 4 3 3 4
48 54 60 72 92 100 96 88 91 100 77 67 61 45 49 47 30 19 14 11 10 10 8 6 6 6 5 4 4 4 4 4 4 4 5 4 5 5 5 4 4 3 4
55 61 74 90 99 100 100 97 82 76 68 53 49 38 30 19 14 11 9 9 8 6 6 5 5 4 4 4 4 4 4 4 4 4 4 4 4 5 5 4 5 5 4
66 72 79 94 100 86 84 85 77 62 59 53 44 29 18 14 10 9 8 6 5 5 5 4 4 4 4 5 5 4 5 5 4 4 4 4 4 4 4 4 5 5 6
84 99 100 92 78 85 76 68 59 61 40 39 22 12 9 9 8 7 6 5 5 4 4 4 4 4 5 5 5 5 5 4 3 3 4 4 4 4 4 5 5 5 6
100 98 89 88 78 78 73 64 63 41 25 20 10 9 8 6 5 5 5 4 4 4 4 4 4 5 5 5 4 4 4 4 4 4 4 4 4 4 5 5 5 6 6
88 77 74 75 78 82 76 58 47 29 22 17 9 8 6 5 4 4 4 4 4 4 5 5 4 5 5 4 4 4 4 4 3 4 3 4 4 4 4 5 6 6 6
89 79 77 85 97 83 64 47 35 20 15 10 9 6 5 5 4 4 4 4 5 5 5 5 5 5 4 4 4 4 4 3 3 4 4 4 4 4 5 5 6 6 6
74 78 97 98 82 67 50 37 19 14 9 8 6 6 5 4 4 5 5 5 5 5 6 6 5 5 5 4 4 4 4 4 4 4 3 3 4 5 5 6 6 7 7
82 100 94 73 67 52 42 23 16 9 8 6 5 5 4 4 5 5 5 5 6 6 6 6 5 5 5 4 4 4 4 4 4 3 2 2 3 4 5 6 7 8 8
96 90 70 51 44 41 29 15 9 8 6 5 4 4 4 5 5 5 5 5 6 6 6 6 6 6 5 4 4 4 4 3 3 3 2 3 3 4 5 6 7 8 9
90 66 57 46 38 29 16 9 8 6 5 4 4 4 5 5 6 6 6 6 6 6 5 6 6 5 5 4 4 4 3 3 3 3 3 3 3 3 4 6 7 8 9